Weather History for San Antonio, TX

Change the Weather History Date:

Monday, August 26, 2013

  Actual Average Record
Temperature  
Mean Temperature 85 °F 85 °F  
Max Temperature 95 °F 95 °F 102 °F (2006)
Min Temperature 75 °F 74 °F 61 °F (1891)
Degree Days  
Heating Degree Days 0 0  
Month to date heating degree days 0 0  
Since 1 June heating degree days 0 0  
Since 1 July heating degree days 0 0  
Cooling Degree Days 20 20  
Month to date cooling degree days 622 539  
Year to date cooling degree days 2476 2299  
Since 1 June cooling degree days 1859 1670  
Growing Degree Days 35 (Base 50)    
Moisture  
Dew Point 72 °F    
Average Humidity 68    
Maximum Humidity 88    
Minimum Humidity 47    
Precipitation  
Precipitation 0.01 in 0.09 in 4.42 in (1948)
Month to date precipitation 0.85 1.57  
Year to date precipitation 23.44 20.42  
Snow  
Snow 0.00 in - - ()
Month to date snowfall 0.0  
Since 1 June snowfall 0.0  
Since 1 July snowfall 0.0  
Snow Depth 0.00 in    
Sea Level Pressure  
Sea Level Pressure 30.03 in    
Wind  
Wind Speed 9 mph (East)    
Max Wind Speed 22 mph    
Max Gust Speed 29 mph    
Visibility 10 miles    
Events Rain    
T = Trace of Precipitation, MM = Missing Value Source: NWS Daily Summary

Daily Weather History Graph

Daily Weather History Graph

Search for Another Location

Airport:

Trip Planner

Search our weather history database for the weather conditions in past years. The results will help you decide how hot, cold, wet, or windy it might be!

Date:

Astronomy

Aug. 26, 2013 Rise Set
Actual Time 7:08 AM CDT 8:02 PM CDT
Civil Twilight 6:43 AM CDT 8:26 PM CDT
Nautical Twilight 6:14 AM CDT 8:55 PM CDT
Astronomical Twilight 5:45 AM CDT 9:25 PM CDT
Moon 11:46 PM CDT (8/26) 12:40 PM CDT (8/26)
Length of Visible Light 13h 43m
Length of Day
12h 54m
Waning Gibbous, 66% of the Moon is Illuminated
Aug 26
Waning Gibbous
Aug 28
Last Quarter
Sep 5
New
Sep 12
First Quarter
Sep 19
Full

Hourly Weather History & Observations

Time (CDT) Temp. Heat Index Dew Point Humidity Pressure Visibility Wind Dir Wind Speed Gust Speed Precip Events Conditions
12:51 AM 81.0 °F 84.9 °F 71.1 °F 72% 30.03 in 10.0 mi East 6.9 mph - N/A   Scattered Clouds
1:51 AM 80.1 °F 83.6 °F 71.1 °F 74% 30.01 in 10.0 mi East 5.8 mph - N/A   Scattered Clouds
2:41 AM 78.8 °F - 71.6 °F 78% 30.07 in 10.0 mi East 8.1 mph - N/A   Mostly Cloudy
2:51 AM 80.1 °F 83.8 °F 72.0 °F 76% 30.01 in 10.0 mi East 9.2 mph - N/A   Mostly Cloudy
3:51 AM 79.0 °F - 71.1 °F 77% 30.01 in 10.0 mi ENE 6.9 mph - N/A   Overcast
4:51 AM 79.0 °F - 72.0 °F 79% 30.01 in 10.0 mi ENE 6.9 mph - N/A   Mostly Cloudy
5:51 AM 79.0 °F - 72.0 °F 79% 30.01 in 10.0 mi NE 6.9 mph - 0.00 in Rain Light Rain
6:51 AM 77.0 °F - 73.0 °F 88% 30.03 in 10.0 mi ENE 4.6 mph - 0.01 in Rain Light Rain
7:51 AM 78.1 °F - 73.9 °F 87% 30.04 in 10.0 mi NE 6.9 mph - 0.00 in   Overcast
8:51 AM 79.0 °F - 73.9 °F 84% 30.05 in 10.0 mi East 9.2 mph - N/A   Overcast
9:47 AM 80.6 °F 85.4 °F 73.4 °F 79% 30.12 in 10.0 mi ENE 11.5 mph - N/A   Overcast
9:51 AM 81.0 °F 85.8 °F 73.0 °F 77% 30.06 in 10.0 mi East 10.4 mph - N/A   Overcast
10:51 AM 86.0 °F 93.0 °F 73.0 °F 65% 30.06 in 10.0 mi ENE 12.7 mph - N/A   Mostly Cloudy
11:51 AM 86.0 °F 91.5 °F 71.1 °F 61% 30.06 in 10.0 mi ENE 11.5 mph 19.6 mph N/A   Mostly Cloudy
12:51 PM 87.1 °F 92.8 °F 71.1 °F 59% 30.04 in 10.0 mi NNE 10.4 mph - N/A   Mostly Cloudy
1:51 PM 91.9 °F 95.9 °F 68.0 °F 45% 30.01 in 10.0 mi ENE 10.4 mph 21.9 mph N/A   Mostly Cloudy
2:51 PM 89.1 °F 93.7 °F 69.1 °F 52% 30.00 in 10.0 mi ENE 17.3 mph 24.2 mph N/A   Mostly Cloudy
3:51 PM 84.0 °F 89.0 °F 71.1 °F 65% 30.00 in 9.0 mi NE 11.5 mph - 0.00 in Rain Light Rain
4:51 PM 84.0 °F 88.4 °F 70.0 °F 63% 30.00 in 10.0 mi East 18.4 mph 25.3 mph 0.00 in   Overcast
5:51 PM 79.0 °F - 75.0 °F 88% 30.00 in 10.0 mi ESE 6.9 mph - 0.00 in Rain Light Rain
6:13 PM 78.8 °F - 73.4 °F 83% 30.05 in 10.0 mi SE 8.1 mph - 0.00 in   Overcast
6:51 PM 79.0 °F - 73.0 °F 82% 30.00 in 10.0 mi ESE 8.1 mph - 0.00 in   Overcast
7:27 PM 78.8 °F - 73.4 °F 83% 30.04 in 8.0 mi ESE 5.8 mph - 0.00 in Rain Light Rain
7:51 PM 77.0 °F - 73.9 °F 90% 30.00 in 10.0 mi ESE 4.6 mph - 0.00 in   Overcast
8:51 PM 78.1 °F - 73.0 °F 84% 29.99 in 10.0 mi NE 6.9 mph - 0.00 in   Mostly Cloudy
9:51 PM 77.0 °F - 73.9 °F 90% 30.00 in 10.0 mi East 5.8 mph - 0.00 in Rain Light Rain
10:17 PM 77.0 °F - 73.4 °F 89% 30.06 in 8.0 mi East 9.2 mph - 0.00 in   Light Drizzle
10:51 PM 75.9 °F - 73.0 °F 91% 30.02 in 10.0 mi SE 10.4 mph - 0.00 in   Light Drizzle
11:51 PM 75.0 °F - 72.0 °F 90% 30.02 in 10.0 mi ESE 10.4 mph - 0.00 in   Overcast